Powrót do katalogu

DMSP 5D-2 F13 DEB

AktywnySSO
NORAD 40487·DEBRIS·🇺🇸 United States

Wystrzelony Mar 24, 1995 z Vandenberg Space Force Base

Loading…

Następne Przeloty (najbliższe 24 godziny)

TLE

ŚwieżeSource: Space-Track

Epoka: Sep 14, 2026, 23:12 UTC

1 40487U 95015CA  26257.96680049  .00001925  00000-0  90449-3 0  9993
2 40487  99.0429 265.9125 0050421 244.6144 114.9807 14.20622135591220

Śledź DMSP 5D-2 F13 DEB w czasie rzeczywistym z AllMySat

Download on the App Store